Location: Adamstown South Public School
(32.9318°S, 151.7012°E)
Time: 17:53:01
(UTC+00:00)

Cosmos 1536 - Pass Details

Date: 07 June 2020
Orbit: 541 x 558 km, 82.5° (Epoch: 04 July)

Event Time Altitude Azimuth Distance (km) Brightness Sun altitude
Rises 08:39:49 0° 2° (N) 2,718 6.5 -21.7°
Reaches altitude 10° 08:41:59 10° 5° (N) 1,830 5.6 -22.2°
Enters shadow 08:44:25 35° 19° (NNE) 916 3.8 -22.7°
